• MPC Preparation (Info)

  • MPEC 2010-C74 : 2010 CP19

    The following Minor Planet Electronic Circular may be linked-to from your own Web pages, but must not otherwise be redistributed electronically.

    A form allowing access to any MPEC is at the bottom of this page.


    Read MPEC 2010-C73 Read MPEC 2010-C75


    M.P.E.C. 2010-C74                                Issued 2010 Feb. 15, 14:24 UT
    
         The Minor Planet Electronic Circulars contain information on unusual
             minor planets and routine data on comets.  They are published
       on behalf of Commission 20 of the International Astronomical Union by the
              Minor Planet Center, Smithsonian Astrophysical Observatory,
                              Cambridge, MA 02138, U.S.A.
    
                 Prepared using the Tamkin Foundation Computer Network
    
                                  MPC@CFA.HARVARD.EDU
              URL http://www.cfa.harvard.edu/iau/mpc.html  ISSN 1523-6714
    
                                       2010 CP19
    
    Observations:
         K10C19P* C2010 02 15.26227 10 32 49.02 +18 10 30.6          19.4 V EC074703
         K10C19P  C2010 02 15.27149 10 32 55.21 +18 13 58.4          19.2 V EC074703
         K10C19P  C2010 02 15.28082 10 33 01.44 +18 17 28.1          19.4 V EC074703
         K10C19P  C2010 02 15.29007 10 33 07.66 +18 20 54.7          19.6 V EC074703
         K10C19P  C2010 02 15.33836 10 33 39.84 +18 39 03.4          19.0 R EC074651
         K10C19P  C2010 02 15.33989 10 33 40.85 +18 39 37.2          19.2 R EC074651
         K10C19P  C2010 02 15.34143 10 33 41.87 +18 40 11.9          19.1 R EC074651
         K10C19P  C2010 02 15.37847 10 34 05.81 +18 53 48.5          18.7 R EC074H01
         K10C19P  C2010 02 15.38547 10 34 10.53 +18 56 24.5          19.0 R EC074H01
         K10C19P  C2010 02 15.38700 10 34 12.28 +18 57 05.7          19.0 V EC074703
         K10C19P  C2010 02 15.38795 10 34 13.04 +18 57 24.4          19.2 V EC074703
         K10C19P  C2010 02 15.38890 10 34 13.54 +18 57 46.9          19.2 V EC074703
         K10C19P  C2010 02 15.38985 10 34 14.26 +18 58 08.5          19.3 V EC074703
         K10C19P  C2010 02 15.39480 10 34 16.82 +18 59 51.9          18.7 R EC074H01
         K10C19P  C2010 02 15.40674 10 34 24.92 +19 04 17.2          18.7 R EC074H01
         K10C19P  C2010 02 15.50272 10 35 32.14 +19 39 56.0          19.8 R EC074926
         K10C19P  C2010 02 15.50461 10 35 33.51 +19 40 37.9          20.2 R EC074926
         K10C19P  C2010 02 15.50649 10 35 34.86 +19 41 18.9          20.0 R EC074926
    
    Observer details:
    651 Grasslands Observatory, Tucson.  Observer J. E. McGaha.  0.62-m f/5.1
        reflector + CCD.
    703 Catalina Sky Survey.  Observer R. A. Kowalski.  Measurers J. D. Ahern,
        E. C. Beshore, A. Boattini, G. J. Garradd, A. R. Gibbs, A. D. Grauer,
        R. E. Hill, R. A. Kowalski, S. M. Larson, R. H. McNaught.  0.68-m Schmidt
        + CCD.
    926 Tenagra II Observatory.  Observers P. R. Holvorcem, M. Schwartz.  Measurer
        P. R. Holvorcem.  0.81-m f/7 Ritchey-Chretien + CCD.
    H01 Magdalena Ridge Observatory, Socorro.  Observers W. H. Ryan, E. V. Ryan.
        Measurer W. H. Ryan.  2.4-m f/8.9 reflector + CCD.
    
    Orbital elements:
    2010 CP19                                                Earth MOID = 0.0374 AU
    Epoch 2010 Feb. 13.0 TT = JDT 2455240.5                 MPC
    M 339.61808              (2000.0)            P               Q
    n   0.75960018     Peri.   26.54098     -0.98229876     -0.12612774
    a   1.1896321      Node   145.32784     +0.09664125     -0.97458288
    e   0.1490191      Incl.   14.09040     +0.16046686     -0.18514862
    P   1.30           H   25.9           G   0.15
    From 17 observations 2010 Feb. 15.  E-assumed.
    
    Ephemeris:
    2010 CP19                a,e,i = 1.19, 0.15, 14                  q = 1.0124
    Date    TT    R. A. (2000) Decl.     Delta      r     Elong.  Phase     V
    2010 02 13    10 07.59   +04 54.1    0.0408   1.027   169.8     9.8    19.7
    2010 02 14    10 17.97   +10 33.1    0.0392   1.026   172.5     7.2    19.5
    2010 02 15    10 29.48   +16 34.1    0.0382   1.025   170.5     9.2    19.5
    2010 02 16    10 42.22   +22 47.2    0.0377   1.024   165.1    14.3    19.6
    2010 02 17    10 56.29   +28 59.5    0.0377   1.023   158.8    20.4    19.8
    2010 02 18    11 11.77   +34 57.9    0.0384   1.022   152.3    26.7    20.1
    2010 02 19    11 28.70   +40 30.7    0.0396   1.022   146.0    32.8    20.3
    2010 02 20    11 47.05   +45 29.5    0.0413   1.021   140.1    38.4    20.6
    2010 02 21    12 06.72   +49 49.8    0.0434   1.020   134.7    43.5    20.8
    2010 02 22    12 27.51   +53 30.4    0.0458   1.019   129.9    48.1    21.1
    2010 02 23    12 49.13   +56 32.9    0.0486   1.018   125.6    52.2    21.3
    2010 02 24    13 11.19   +59 00.3    0.0516   1.018   121.8    55.7    21.5
    2010 02 25    13 33.27   +60 56.9    0.0548   1.017   118.5    58.8    21.7
    2010 02 26    13 54.95   +62 26.9    0.0581   1.016   115.6    61.5    22.0
    2010 02 27    14 15.84   +63 34.7    0.0616   1.016   113.0    63.8    22.1
    2010 02 28    14 35.63   +64 24.4    0.0652   1.015   110.7    65.9    22.3
    2010 03 01    14 54.13   +64 59.5    0.0689   1.015   108.7    67.7    22.5
    2010 03 02    15 11.23   +65 23.2    0.0727   1.014   106.9    69.2    22.7
    2010 03 03    15 26.89   +65 37.9    0.0765   1.014   105.3    70.6    22.8
    2010 03 04    15 41.14   +65 45.9    0.0803   1.014   103.8    71.8    23.0
    2010 03 05    15 54.06   +65 48.7    0.0842   1.013   102.6    72.8    23.1
    
    Timothy B. Spahr             (C) Copyright 2010 MPC           M.P.E.C. 2010-C74
    

    Read MPEC 2010-C73 Read MPEC 2010-C75


    MPEC number:

    Enter an MPEC number in one of the following forms:

    • 1997-B01 (the full form)
    • J97B01 (the packed version of the full form)
    • B01 (the abbreviated form)